DW9713 Weather Reports


Display with metric or nautical units.
time (UTC)temp
F
wind
direction
speed
MPH
gust
MPH
rain 1hr
in
rain 24hr
in
rain mn
in
humidity
%
barometer
mb
20201023051705 70 78 0.0 0.0 0.00 0.00 0.00 86 1015.1
20201023051157 70 78 0.0 0.0 0.00 0.00 0.00 86 1015.2
20201023050652 70 78 0.0 0.0 0.00 0.00 0.00 86 1015.1
20201023050147 70 78 0.0 1.0 0.00 0.00 0.00 86 1015.1
20201023045640 70 78 0.0 1.0 0.00 0.00 0.00 86 1015.2
20201023045128 70 79 0.0 0.0 0.00 0.00 0.00 86 1015.1
20201023044627 70 79 0.0 1.0 0.00 0.00 0.00 86 1015.2
20201023044126 70 79 0.0 1.0 0.00 0.00 0.00 86 1015.2
20201023043615 70 79 0.0 1.0 0.00 0.00 0.00 86 1015.2
20201023043112 70 79 0.0 1.0 0.00 0.00 0.00 86 1015.3
20201023042603 70 87 0.0 0.0 0.00 0.00 0.00 86 1015.3
20201023042057 70 87 0.0 0.0 0.00 0.00 0.00 86 1015.2
20201023041551 71 87 0.0 0.0 0.00 0.00 0.00 85 1015.3
20201023041046 71 87 0.0 0.0 0.00 0.00 0.00 85 1015.3
20201023040540 71 87 0.0 0.0 0.00 0.00 0.00 85 1015.3
20201023040034 71 87 0.0 1.0 0.00 0.00 0.00 85 1015.3
20201023035527 71 87 0.0 1.0 0.00 0.00 0.00 85 1015.3
20201023035017 71 87 0.0 0.0 0.00 0.00 0.00 84 1015.3
20201023034518 71 87 0.0 1.0 0.00 0.00 0.00 84 1015.3
20201023034011 71 87 0.0 1.0 0.00 0.00 0.00 84 1015.2
20201023033512 71 68 0.0 2.0 0.00 0.00 0.00 84 1015.2
20201023032957 71 68 0.0 2.0 0.00 0.00 0.00 84 1015.2
20201023032455 71 68 0.0 3.0 0.00 0.00 0.00 84 1015.2
20201023031946 71 88 0.0 3.0 0.00 0.00 0.00 84 1015.3
20201023031439 71 76 0.0 1.0 0.00 0.00 0.00 83 1015.2
20201023030934 71 76 0.0 1.0 0.00 0.00 0.00 83 1015.3
20201023030430 71 76 0.0 1.0 0.00 0.00 0.00 83 1015.3
20201023025922 71 76 0.0 2.0 0.00 0.00 0.00 83 1015.3
20201023025415 72 76 0.0 3.0 0.00 0.00 0.00 83 1015.3
20201023024907 72 80 0.0 3.0 0.00 0.00 0.00 82 1015.3
20201023024403 72 76 0.0 2.0 0.00 0.00 0.00 82 1015.3
20201023023906 72 76 0.0 2.0 0.00 0.00 0.00 82 1015.4
20201023023348 72 76 0.0 1.0 0.00 0.00 0.00 82 1015.4
20201023022849 72 76 0.0 1.0 0.00 0.00 0.00 82 1015.4
20201023022341 72 76 0.0 1.0 0.00 0.00 0.00 81 1015.3
20201023021842 72 76 0.0 1.0 0.00 0.00 0.00 81 1015.3
20201023021333 72 76 0.0 1.0 0.00 0.00 0.00 81 1015.4
20201023020831 72 76 0.0 1.0 0.00 0.00 0.00 81 1015.4
20201023020332 72 86 0.0 2.0 0.00 0.00 0.00 81 1015.4
20201023015827 72 86 0.0 2.0 0.00 0.00 0.00 81 1015.5
20201023015331 72 88 0.0 0.0 0.00 0.00 0.00 81 1015.5
20201023014824 72 88 0.0 1.0 0.00 0.00 0.00 81 1015.5
20201023014322 72 88 0.0 1.0 0.00 0.00 0.00 81 1015.5
20201023013819 72 88 0.0 2.0 0.00 0.00 0.00 81 1015.5
20201023013317 72 88 0.0 2.0 0.00 0.00 0.00 81 1015.7
20201023012815 72 88 0.0 1.0 0.00 0.00 0.00 81 1015.7
20201023012316 72 88 0.0 1.0 0.00 0.00 0.00 81 1015.7
20201023011812 72 88 0.0 0.0 0.00 0.00 0.00 81 1015.8
20201023011308 72 88 0.0 0.0 0.00 0.00 0.00 82 1015.8
20201023010809 72 88 0.0 0.0 0.00 0.00 0.00 82 1015.8
20201023010308 72 88 0.0 0.0 0.00 0.00 0.00 82 1015.8
20201023005809 71 88 0.0 0.0 0.00 0.00 0.00 83 1015.8
20201023005306 71 88 0.0 0.0 0.00 0.00 0.00 83 1015.8
20201023004805 71 88 0.0 0.0 0.00 0.00 0.00 83 1015.8
20201023004304 71 88 0.0 0.0 0.00 0.00 0.00 83 1015.8
20201023003800 71 88 0.0 0.0 0.00 0.00 0.00 83 1015.8
20201023003300 72 88 0.0 0.0 0.00 0.00 0.00 82 1015.8
20201023002759 72 88 0.0 0.0 0.00 0.00 0.00 81 1015.8
20201023002255 72 88 0.0 0.0 0.00 0.00 0.00 81 1015.7
20201023001745 73 88 0.0 0.0 0.00 0.00 0.00 81 1015.7
20201023001238 73 88 0.0 0.0 0.00 0.00 0.00 81 1015.7
20201023000732 73 88 0.0 0.0 0.00 0.00 0.00 80 1015.5
20201023000226 74 88 0.0 0.0 0.00 0.00 0.00 79 1015.5
20201022235720 74 83 0.0 0.0 0.00 0.00 0.00 78 1015.5
20201022235214 74 83 0.0 0.0 0.00 0.00 0.00 77 1015.5
20201022234708 75 83 0.0 0.0 0.00 0.00 0.00 76 1015.5
20201022234201 75 83 0.0 0.0 0.00 0.00 0.00 75 1015.5
20201022233704 76 83 0.0 0.0 0.00 0.00 0.00 74 1015.4
20201022233153 76 83 0.0 0.0 0.00 0.00 0.00 74 1015.4
20201022232644 77 83 0.0 0.0 0.00 0.00 0.00 73 1015.3
20201022232140 77 83 0.0 0.0 0.00 0.00 0.00 72 1015.3
20201022231629 78 83 0.0 0.0 0.00 0.00 0.00 71 1015.3
20201022231125 78 83 0.0 0.0 0.00 0.00 0.00 70 1015.4
20201022230620 78 83 0.0 0.0 0.00 0.00 0.00 70 1015.3
20201022230113 79 83 0.0 0.0 0.00 0.00 0.00 69 1015.3
20201022225613 79 83 0.0 0.0 0.00 0.00 0.00 69 1015.3
20201022225058 80 83 0.0 0.0 0.00 0.00 0.00 68 1015.4
20201022224559 80 83 0.0 0.0 0.00 0.00 0.00 67 1015.4
20201022224056 80 83 0.0 0.0 0.00 0.00 0.00 67 1015.5
20201022223546 80 83 0.0 0.0 0.00 0.00 0.00 66 1015.5
20201022223040 80 83 0.0 0.0 0.00 0.00 0.00 66 1015.7
20201022222528 81 83 0.0 3.0 0.00 0.00 0.00 65 1015.8
20201022222026 81 83 0.0 3.0 0.00 0.00 0.00 64 1015.7
20201022221521 81 67 0.0 0.0 0.00 0.00 0.00 65 1015.8
20201022221018 81 67 0.0 0.0 0.00 0.00 0.00 64 1015.8
20201022220515 81 67 0.0 3.0 0.00 0.00 0.00 64 1015.8
20201022215959 81 67 0.0 3.0 0.00 0.00 0.00 64 1015.8
20201022215454 81 71 0.0 2.0 0.00 0.00 0.00 64 1015.8
20201022214945 81 68 0.0 2.0 0.00 0.00 0.00 64 1015.8
20201022214442 81 54 0.0 2.0 0.00 0.00 0.00 65 1015.8
20201022213936 81 51 0.0 1.0 0.00 0.00 0.00 66 1015.8
20201022213427 81 51 0.0 1.0 0.00 0.00 0.00 64 1015.8
20201022212925 81 51 0.0 0.0 0.00 0.00 0.00 66 1015.8
20201022212418 81 51 0.0 2.0 0.00 0.00 0.00 65 1015.8
20201022211918 81 51 0.0 2.0 0.00 0.00 0.00 65 1015.8
20201022211414 82 45 0.0 0.0 0.00 0.00 0.00 64 1015.8
20201022210917 82 45 0.0 4.0 0.00 0.00 0.00 64 1015.8
20201022210412 82 66 0.0 4.0 0.00 0.00 0.00 63 1015.8
20201022205913 83 252 0.0 3.0 0.00 0.00 0.00 62 1015.8
20201022205410 83 255 0.0 6.0 0.00 0.00 0.00 63 1015.8
20201022204908 83 252 1.0 6.0 0.00 0.00 0.00 64 1015.8
20201022204411 83 275 0.0 4.0 0.00 0.00 0.00 65 1015.8
20201022203907 82 134 0.0 5.0 0.00 0.00 0.00 66 1015.9
20201022203409 82 90 1.0 5.0 0.00 0.00 0.00 64 1015.8
20201022202905 82 279 0.0 4.0 0.00 0.00 0.00 67 1015.8
20201022202413 81 261 0.0 8.0 0.00 0.00 0.00 68 1015.8
20201022201905 81 261 1.0 8.0 0.00 0.00 0.00 66 1015.8
20201022201404 81 254 0.0 6.0 0.00 0.00 0.00 67 1015.8
20201022200904 81 210 0.0 4.0 0.00 0.00 0.00 68 1015.9
20201022200403 81 248 0.0 3.0 0.00 0.00 0.00 68 1015.9
20201022195906 81 229 0.0 2.0 0.00 0.00 0.00 68 1016.0
20201022195418 81 238 0.0 2.0 0.00 0.00 0.00 69 1016.0
20201022194858 81 228 0.0 0.0 0.00 0.00 0.00 68 1016.0
20201022194359 81 228 0.0 3.0 0.00 0.00 0.00 68 1016.1
20201022193856 81 228 0.0 3.0 0.00 0.00 0.00 68 1016.2
20201022193401 81 207 0.0 4.0 0.00 0.00 0.00 67 1016.2
20201022192906 81 248 1.0 7.0 0.00 0.00 0.00 70 1016.3
20201022192358 81 235 1.0 7.0 0.00 0.00 0.00 70 1016.4
20201022191859 80 261 0.0 5.0 0.00 0.00 0.00 72 1016.5
20201022191359 80 64 0.0 3.0 0.00 0.00 0.00 71 1016.5
20201022190857 80 90 0.0 3.0 0.00 0.00 0.00 72 1016.6
20201022190357 80 249 0.0 2.0 0.00 0.00 0.00 72 1016.7
20201022185855 80 253 0.0 2.0 0.00 0.00 0.00 73 1016.7
20201022185355 80 253 0.0 6.0 0.00 0.00 0.00 72 1016.8
20201022184854 80 261 0.0 6.0 0.00 0.00 0.00 71 1017.0
20201022184351 80 269 0.0 6.0 0.00 0.00 0.00 71 1017.0
20201022183855 80 261 0.0 6.0 0.00 0.00 0.00 72 1017.1
20201022183351 80 204 1.0 6.0 0.00 0.00 0.00 72 1017.2
20201022182852 80 248 1.0 6.0 0.00 0.00 0.00 74 1017.2
20201022182355 80 251 1.0 5.0 0.00 0.00 0.00 72 1017.4
20201022182255 80 227 1.0 5.0 0.00 0.00 0.00 72 1017.5
20201022180850 80 263 1.0 7.0 0.00 0.00 0.00 74 1017.6
20201022180348 80 192 1.0 7.0 0.00 0.00 0.00 75 1017.7
20201022175848 80 250 1.0 6.0 0.00 0.00 0.00 73 1017.8
20201022175345 80 159 1.0 6.0 0.00 0.00 0.00 73 1017.8
20201022174846 79 260 1.0 6.0 0.00 0.00 0.00 74 1017.9
20201022174347 79 250 0.0 5.0 0.00 0.00 0.00 74 1018.1
20201022173848 79 205 0.0 4.0 0.00 0.00 0.00 75 1018.1
20201022173347 78 236 1.0 8.0 0.00 0.00 0.00 76 1018.2
20201022172851 78 269 1.0 8.0 0.00 0.00 0.00 78 1018.3
20201022172347 78 311 1.0 5.0 0.00 0.00 0.00 77 1018.4
20201022171846 78 255 1.0 8.0 0.00 0.00 0.00 77 1018.5
20201022171349 78 255 1.0 8.0 0.00 0.00 0.00 76 1018.6
20201022170841 79 216 0.0 6.0 0.00 0.00 0.00 77 1018.6
20201022170330 78 228 1.0 6.0 0.00 0.00 0.00 78 1018.7
20201022165817 78 209 1.0 5.0 0.00 0.00 0.00 79 1018.7
20201022165304 78 288 1.0 5.0 0.00 0.00 0.00 78 1018.9
20201022164759 78 286 1.0 8.0 0.00 0.00 0.00 78 1018.9
20201022164303 78 198 1.0 8.0 0.00 0.00 0.00 78 1019.0
20201022163828 78 248 1.0 8.0 0.00 0.00 0.00 79 1019.1
20201022163259 78 264 0.0 4.0 0.00 0.00 0.00 80 1019.1
20201022162801 77 301 0.0 4.0 0.00 0.00 0.00 80 1019.2
20201022162259 77 119 0.0 6.0 0.00 0.00 0.00 80 1019.2
20201022161801 77 88 0.0 6.0 0.00 0.00 0.00 81 1019.3
20201022161258 77 81 0.0 5.0 0.00 0.00 0.00 81 1019.3
20201022160803 76 280 0.0 8.0 0.00 0.00 0.00 82 1019.5
20201022160257 76 238 0.0 8.0 0.00 0.00 0.00 82 1019.4
20201022155741 76 323 0.0 6.0 0.00 0.00 0.00 82 1019.4
20201022155240 76 227 0.0 6.0 0.00 0.00 0.00 81 1019.5
20201022154742 76 281 0.0 5.0 0.00 0.00 0.00 82 1019.6
20201022154242 76 281 0.0 5.0 0.00 0.00 0.00 82 1019.6
20201022153749 76 271 0.0 4.0 0.00 0.00 0.00 82 1019.6
20201022153241 75 207 0.0 1.0 0.00 0.00 0.00 83 1019.6
20201022152742 75 245 0.0 3.0 0.00 0.00 0.00 83 1019.6
20201022152243 75 245 0.0 3.0 0.00 0.00 0.00 84 1019.7
20201022151744 75 232 0.0 2.0 0.00 0.00 0.00 84 1019.6
20201022151244 74 252 0.0 5.0 0.00 0.00 0.00 85 1019.7
20201022150729 74 93 0.0 5.0 0.00 0.00 0.00 87 1019.8
20201022150215 73 79 0.0 0.0 0.00 0.00 0.00 88 1019.8
20201022145705 72 86 0.0 0.0 0.00 0.00 0.00 89 1019.8
20201022145158 71 86 0.0 0.0 0.00 0.00 0.00 90 1019.8
20201022144638 71 85 0.0 1.0 0.00 0.00 0.00 91 1019.9
20201022144143 70 85 0.0 1.0 0.00 0.00 0.00 91 1019.9
20201022143637 70 86 0.0 1.0 0.00 0.00 0.00 91 1019.9
20201022143139 69 110 0.0 3.0 0.00 0.00 0.00 92 1019.9
20201022142638 69 109 0.0 3.0 0.00 0.00 0.00 92 1019.9
20201022142138 69 144 0.0 1.0 0.00 0.00 0.00 92 1019.9
20201022141637 68 151 0.0 1.0 0.00 0.00 0.00 93 1020.0
20201022141141 68 161 0.0 1.0 0.00 0.00 0.00 93 1019.9
20201022140641 68 136 0.0 1.0 0.00 0.00 0.00 93 1019.9
20201022140134 67 136 0.0 0.0 0.00 0.00 0.00 93 1020.0
20201022135949 67 136 0.0 0.0 0.00 0.00 0.00 93 1019.9
20201022135457 67 140 0.0 0.0 0.00 0.00 0.00 93 1019.9
20201022134557 67 140 0.0 0.0 0.00 0.00 0.00 94 1019.8
20201022134045 67 140 0.0 1.0 0.00 0.00 0.00 94 1019.8
20201022133533 66 140 0.0 1.0 0.00 0.00 0.00 94 1019.8
20201022133058 66 180 0.0 0.0 0.00 0.00 0.00 94 1019.8
20201022132537 66 180 0.0 0.0 0.00 0.00 0.00 94 1019.7
20201022132034 66 180 0.0 0.0 0.00 0.00 0.00 94 1019.7
20201022131534 66 180 0.0 0.0 0.00 0.00 0.00 94 1019.6
20201022131033 65 180 0.0 2.0 0.00 0.00 0.00 94 1019.6
20201022130534 65 182 0.0 2.0 0.00 0.00 0.00 94 1019.5
20201022130034 65 198 0.0 0.0 0.00 0.00 0.00 94 1019.5
20201022125535 65 198 0.0 1.0 0.00 0.00 0.00 94 1019.5
20201022125029 65 198 0.0 1.0 0.00 0.00 0.00 94 1019.5
20201022124523 65 200 0.0 0.0 0.00 0.00 0.00 94 1019.4
20201022124020 65 200 0.0 0.0 0.00 0.00 0.00 94 1019.4
20201022123518 65 200 0.0 0.0 0.00 0.00 0.00 94 1019.3
20201022123043 65 200 0.0 0.0 0.00 0.00 0.00 94 1019.3
20201022122517 65 200 0.0 0.0 0.00 0.00 0.00 94 1019.3
20201022122019 65 200 0.0 0.0 0.00 0.00 0.00 94 1019.3
20201022121525 65 200 0.0 0.0 0.00 0.00 0.00 93 1019.3
20201022121020 65 200 0.0 0.0 0.00 0.00 0.00 93 1019.3
20201022120520 65 200 0.0 1.0 0.00 0.00 0.00 93 1019.2
20201022120021 65 200 0.0 2.0 0.00 0.00 0.00 93 1019.2
20201022115504 65 206 0.0 2.0 0.00 0.00 0.00 93 1019.1
20201022114949 65 209 0.0 0.0 0.00 0.00 0.00 93 1019.1
20201022114438 65 209 0.0 1.0 0.00 0.00 0.00 93 1019.1
20201022113926 65 209 0.0 1.0 0.00 0.00 0.00 93 1019.1
20201022113414 65 213 0.0 0.0 0.00 0.00 0.00 93 1019.1
20201022112914 65 213 0.0 0.0 0.00 0.00 0.00 93 1019.1
20201022112414 65 215 0.0 0.0 0.00 0.00 0.00 93 1019.1
20201022111916 65 215 0.0 0.0 0.00 0.00 0.00 93 1019.0
20201022111415 65 215 0.0 0.0 0.00 0.00 0.00 93 1019.0
20201022110915 65 215 0.0 1.0 0.00 0.00 0.00 93 1019.0
20201022110416 65 215 0.0 1.0 0.00 0.00 0.00 94 1019.0
20201022105916 65 218 0.0 1.0 0.00 0.00 0.00 93 1018.9
20201022105416 65 218 0.0 1.0 0.00 0.00 0.00 93 1018.9
20201022104910 65 221 0.0 1.0 0.00 0.00 0.00 93 1018.9
20201022104357 65 221 0.0 1.0 0.00 0.00 0.00 93 1018.9
20201022103846 65 223 0.0 0.0 0.00 0.00 0.00 93 1018.9
20201022103336 65 223 0.0 0.0 0.00 0.00 0.00 93 1018.8
20201022102821 65 223 0.0 0.0 0.00 0.00 0.00 93 1018.8
20201022102313 65 223 0.0 0.0 0.00 0.00 0.00 93 1018.7
20201022101809 65 223 0.0 0.0 0.00 0.00 0.00 93 1018.6
20201022101310 65 223 0.0 0.0 0.00 0.00 0.00 93 1018.6
20201022100810 65 223 0.0 0.0 0.00 0.00 0.00 93 1018.6
20201022100308 65 223 0.0 0.0 0.00 0.00 0.00 93 1018.6
20201022095810 65 223 0.0 0.0 0.00 0.00 0.00 93 1018.6
20201022095314 65 223 0.0 0.0 0.00 0.00 0.00 93 1018.5
20201022094812 65 223 0.0 0.0 0.00 0.00 0.00 93 1018.5
20201022094311 65 223 0.0 0.0 0.00 0.00 0.00 93 1018.4
20201022093806 65 223 0.0 0.0 0.00 0.00 0.00 93 1018.5
20201022093253 65 223 0.0 0.0 0.00 0.00 0.00 93 1018.5
20201022092752 65 223 0.0 1.0 0.00 0.00 0.00 93 1018.5
20201022092255 65 223 0.0 1.0 0.00 0.00 0.00 93 1018.5
20201022091752 65 225 0.0 0.0 0.00 0.00 0.00 93 1018.4
20201022091254 65 225 0.0 0.0 0.00 0.00 0.00 93 1018.4
20201022090753 65 225 0.0 0.0 0.00 0.00 0.00 92 1018.3
20201022090256 65 225 0.0 0.0 0.00 0.00 0.00 92 1018.3
20201022085754 65 225 0.0 0.0 0.00 0.00 0.00 92 1018.3
20201022085255 65 225 0.0 0.0 0.00 0.00 0.00 93 1018.4
20201022084751 65 225 0.0 0.0 0.00 0.00 0.00 93 1018.3
20201022084237 65 225 0.0 0.0 0.00 0.00 0.00 93 1018.4
20201022083741 65 225 0.0 0.0 0.00 0.00 0.00 93 1018.4
20201022083236 65 225 0.0 0.0 0.00 0.00 0.00 93 1018.4
20201022082741 65 225 0.0 0.0 0.00 0.00 0.00 93 1018.3
20201022082243 65 225 0.0 0.0 0.00 0.00 0.00 93 1018.4
20201022081739 65 225 0.0 0.0 0.00 0.00 0.00 93 1018.3
20201022081239 65 225 0.0 0.0 0.00 0.00 0.00 93 1018.3
20201022080743 65 225 0.0 0.0 0.00 0.00 0.00 93 1018.3
20201022080239 65 225 0.0 0.0 0.00 0.00 0.00 93 1018.4
20201022075735 65 225 0.0 0.0 0.00 0.00 0.00 93 1018.3
20201022075222 65 225 0.0 0.0 0.00 0.00 0.00 93 1018.4
20201022074722 65 225 0.0 0.0 0.00 0.00 0.00 93 1018.4
20201022074222 64 225 0.0 0.0 0.00 0.00 0.00 93 1018.3
20201022073723 64 225 0.0 0.0 0.00 0.00 0.00 93 1018.4
20201022073222 64 225 0.0 0.0 0.00 0.00 0.00 93 1018.4
20201022072723 65 225 0.0 0.0 0.00 0.00 0.00 93 1018.4
20201022072221 65 225 0.0 0.0 0.00 0.00 0.00 93 1018.4
20201022071721 64 225 0.0 0.0 0.00 0.00 0.00 92 1018.3
20201022071235 65 225 0.0 0.0 0.00 0.00 0.00 92 1018.3
20201022070721 65 225 0.0 0.0 0.00 0.00 0.00 92 1018.4
20201022070211 65 225 0.0 0.0 0.00 0.00 0.00 92 1018.4
20201022065706 65 225 0.0 0.0 0.00 0.00 0.00 92 1018.4
20201022065207 65 225 0.0 0.0 0.00 0.00 0.00 92 1018.4
20201022064707 65 225 0.0 0.0 0.00 0.00 0.00 92 1018.4
20201022064205 65 225 0.0 0.0 0.00 0.00 0.00 92 1018.4
20201022063705 65 225 0.0 0.0 0.00 0.00 0.00 92 1018.4
20201022063206 65 225 0.0 0.0 0.00 0.00 0.00 92 1018.4
20201022062706 65 225 0.0 0.0 0.00 0.00 0.00 92 1018.4
20201022062207 65 225 0.0 0.0 0.00 0.00 0.00 92 1018.4
20201022061659 65 225 0.0 0.0 0.00 0.00 0.00 92 1018.4
20201022061149 65 225 0.0 0.0 0.00 0.00 0.00 92 1018.4
20201022060650 65 225 0.0 0.0 0.00 0.00 0.00 92 1018.4
20201022060154 65 225 0.0 0.0 0.00 0.00 0.00 92 1018.4
20201022055648 65 225 0.0 0.0 0.00 0.00 0.00 91 1018.4
20201022055149 65 225 0.0 0.0 0.00 0.00 0.00 91 1018.4
20201022054653 65 225 0.0 0.0 0.00 0.00 0.00 91 1018.4
20201022054151 65 225 0.0 0.0 0.00 0.00 0.00 91 1018.4
20201022053652 65 225 0.0 0.0 0.00 0.00 0.00 91 1018.4
20201022053152 65 225 0.0 0.0 0.00 0.00 0.00 91 1018.5
20201022052645 65 225 0.0 0.0 0.00 0.00 0.00 91 1018.4
20201022052149 65 225 0.0 0.0 0.00 0.00 0.00 91 1018.5